Regional Weather Roundup
Issued by NWS

Home | Current Version | Previous Version | Graphics & Text | Print | Product List | Glossary On
Versions: 1 2 3 4 5 6 7 8 9 10 11 12 13 14 15 16 17 18 19 20 21 22 23 24 25 26 27 28 29 30 31 32 33 34 35 36 37 38 39 40 41 42 43 44 45 46 47 48 49 50
000
ASUS43 KLMK 210410
RWRKY
KENTUCKY REGIONAL WEATHER ROUNDUP
NATIONAL WEATHER SERVICE LOUISVILLE KY
1200 AM EDT THU AUG 21 2014

NOTE "FAIR" INDICATES FEW OR NO CLOUDS BELOW 12,000 FEET
WITH NO SIGNIFICANT WEATHER AND/OR OBSTRUCTIONS TO VISIBILITY.

KYZ001>023-026-027-061>063-070>075-210500-
WESTERN AND SOUTH CENTRAL KENTUCKY

CITY           SKY/WX    TMP DP  RH WIND       PRES   REMARKS
PADUCAH        CLEAR     79  73  82 SE7       30.03R
HENDERSON      PTCLDY    75  66  73 S6        30.02S
OWENSBORO      MOCLDY    73  66  78 S5        30.04F
HOPKINSVILLE   MOCLDY    73  73 100 S5        30.06S
BOWLING GREEN  PTCLDY    71  68  90 SE5       30.08F
GLASGOW        CLOUDY    70  70 100 CALM      30.09F
$$

KYZ024-025-028>034-038-045-046-053-210500-
NORTH CENTRAL KENTUCKY

CITY           SKY/WX    TMP DP  RH WIND       PRES   REMARKS
LOUISVILLE/SDF MOCLDY    77  71  82 SW9       30.04F
LOUISVILLE/LOU PTCLDY    76  72  87 S5        30.05S
FORT KNOX      PTCLDY    72  72 100 S6        30.06S
$$

KYZ035>037-039>044-047>052-055>060-089>105-210500-
NORTHEAST KENTUCKY

CITY           SKY/WX    TMP DP  RH WIND       PRES   REMARKS
LEXINGTON      MOCLDY    71  67  87 S7        30.08S
COVINGTON      LGT RAIN  71  68  90 S10       30.04F
FRANKFORT      CLOUDY    72  68  87 S8        30.06S
$$

KYZ054-064>069-076>088-106>120-210500-
SOUTHEAST KENTUCKY

CITY           SKY/WX    TMP DP  RH WIND       PRES   REMARKS
JACKSON        CLOUDY    67  65  93 CALM      30.11S
LONDON         CLOUDY    70  66  87 S3        30.12S
SOMERSET       CLOUDY    68  68 100 CALM      30.12S
MIDDLESBORO    CLOUDY    67  67 100 CALM      30.14S
MONTICELLO     CLOUDY    68  68 100 CALM      30.13R
$$




USA.gov is the U.S. government's official web portal to all federal, state and local government web resources and services.